Weather History for Springfield, MO

Change the Weather History Date:

Tuesday, April 30, 2013

  Actual Average Record
Temperature  
Mean Temperature 70 °F 60 °F  
Max Temperature 82 °F 71 °F 90 °F (1952)
Min Temperature 58 °F 49 °F 32 °F (1907)
Degree Days  
Heating Degree Days 0 6  
Month to date heating degree days 337 300  
Since 1 July heating degree days 4352 4474  
Cooling Degree Days 5 1  
Month to date cooling degree days 17 22  
Year to date cooling degree days 17 25  
Growing Degree Days 20 (Base 50)    
Moisture  
Dew Point 51 °F    
Average Humidity 59    
Maximum Humidity 87    
Minimum Humidity 30    
Precipitation  
Precipitation 0.00 in 0.18 in 3.42 in (1970)
Month to date precipitation 5.64 4.32  
Year to date precipitation 15.75 12.93  
Snow  
Snow 0.00 in - - ()
Month to date snowfall T  
Since 1 July snowfall 11.3  
Snow Depth 0.00 in    
Sea Level Pressure  
Sea Level Pressure 29.82 in    
Wind  
Wind Speed 13 mph (South)    
Max Wind Speed 23 mph    
Max Gust Speed 29 mph    
Visibility 10 miles    
Events      
T = Trace of Precipitation, MM = Missing Value Source: NWS Daily Summary

Daily Weather History Graph

Daily Weather History Graph

Search for Another Location

Airport:

Trip Planner

Search our weather history database for the weather conditions in past years. The results will help you decide how hot, cold, wet, or windy it might be!

Date:

Astronomy

Apr. 30, 2013 Rise Set
Actual Time 6:19 AM CDT 8:02 PM CDT
Civil Twilight 5:51 AM CDT 8:30 PM CDT
Nautical Twilight 5:18 AM CDT 9:04 PM CDT
Astronomical Twilight 4:42 AM CDT 9:40 PM CDT
Moon 12:24 AM CDT (4/30) 10:50 AM CDT (4/30)
Length of Visible Light 14h 38m
Length of Day
13h 42m
Waning Gibbous, 70% of the Moon is Illuminated
Apr 30
Waning Gibbous
May 2
Last Quarter
May 9
New
May 17
First Quarter
May 24
Full

Hourly Weather History & Observations

Time (CDT) Temp. Dew Point Humidity Pressure Visibility Wind Dir Wind Speed Gust Speed Precip Events Conditions
12:52 AM 66.0 °F 55.0 °F 68% 29.78 in 10.0 mi SSE 11.5 mph - N/A   Clear
1:52 AM 64.9 °F 55.0 °F 70% 29.77 in 10.0 mi SSE 10.4 mph - N/A   Clear
2:52 AM 63.0 °F 55.0 °F 75% 29.76 in 10.0 mi SSE 10.4 mph - N/A   Clear
3:52 AM 62.1 °F 55.0 °F 78% 29.78 in 10.0 mi SSE 10.4 mph - N/A   Clear
4:52 AM 61.0 °F 55.0 °F 81% 29.79 in 10.0 mi SSE 9.2 mph - N/A   Clear
5:52 AM 59.0 °F 55.0 °F 87% 29.81 in 10.0 mi SSE 12.7 mph - N/A   Clear
6:52 AM 59.0 °F 55.0 °F 87% 29.83 in 10.0 mi SSE 8.1 mph - N/A   Clear
7:52 AM 64.0 °F 55.9 °F 75% 29.85 in 10.0 mi South 9.2 mph - N/A   Clear
8:52 AM 69.1 °F 55.9 °F 63% 29.85 in 10.0 mi South 13.8 mph - N/A   Clear
9:52 AM 72.0 °F 55.9 °F 57% 29.85 in 10.0 mi SSW 15.0 mph - N/A   Clear
10:52 AM 75.0 °F 55.0 °F 50% 29.85 in 10.0 mi South 18.4 mph - N/A   Clear
11:52 AM 77.0 °F 54.0 °F 45% 29.83 in 10.0 mi SSW 18.4 mph - N/A   Clear
12:52 PM 79.0 °F 50.0 °F 36% 29.82 in 10.0 mi South 17.3 mph 27.6 mph N/A   Clear
1:52 PM 80.6 °F 48.2 °F 32% 29.84 in 10.0 mi SSW 16.1 mph - N/A   Clear
2:52 PM 81.0 °F 51.1 °F 35% 29.81 in 10.0 mi South 11.5 mph - N/A   Clear
3:52 PM 82.0 °F 48.9 °F 31% 29.80 in 10.0 mi South 18.4 mph 23.0 mph N/A   Clear
4:52 PM 81.0 °F 48.0 °F 31% 29.79 in 10.0 mi South 15.0 mph - N/A   Clear
5:52 PM 80.1 °F 46.0 °F 30% 29.80 in 10.0 mi SSE 16.1 mph 21.9 mph N/A   Clear
6:52 PM 77.0 °F 46.0 °F 33% 29.81 in 10.0 mi SSE 13.8 mph - N/A   Clear
7:52 PM 73.9 °F 46.0 °F 37% 29.81 in 10.0 mi SSE 12.7 mph - N/A   Clear
8:52 PM 70.0 °F 46.0 °F 42% 29.83 in 10.0 mi SSE 11.5 mph - N/A   Clear
9:52 PM 68.0 °F 46.0 °F 45% 29.86 in 10.0 mi SSE 10.4 mph - N/A   Clear
10:52 PM 66.9 °F 46.9 °F 49% 29.86 in 10.0 mi SSE 10.4 mph - N/A   Clear
11:52 PM 64.0 °F 48.0 °F 56% 29.87 in 10.0 mi SSE 6.9 mph - N/A   Clear